Station PCLF1 - 8729840 - Pensacola, FL Image indicating link to RSS feed of recent meteorological observations for station PCLF1


Conditions at PCLF1 as of
(8:30 am CDT)
1330 GMT on 07/15/2024:
     

Click on the graph icon in the table below to see a time series plot of the last five days of that observation.

5-day plot - Wind Direction Wind Direction (WDIR): N ( 360 deg true )
5-day plot - Wind Speed Wind Speed (WSPD): 5.1 kts
5-day plot - Wind Gust Wind Gust (GST): 5.1 kts
5-day plot - Atmospheric Pressure Atmospheric Pressure (PRES):30.11 in
5-day plot - Air Temperature Air Temperature (ATMP): 85.1 °F
5-day plot - Water Temperature Water Temperature (WTMP): 88.7 °F
5-day plot - Wind Speed at 10 Meters Wind Speed at 10 meters (WSPD10M): 5.8 kts
5-day plot - Wind Speed at 20 Meters Wind Speed at 20 meters (WSPD20M): 5.8 kts
5-day plot -  Wind Speed, Wind Gust and Atmospheric Pressure Combined plot of Wind Speed, Gust, and Air Pressure
NOS Water Level Observation Network Water Level
Previous observations
TIME
(CDT)
5-day plot - Wind Direction
WDIR
 
5-day plot - Wind Speed
WSPD
kts
5-day plot - Wind Gust
GST
kts
5-day plot - Wave Height
WVHT
ft
5-day plot - Dominant Wave Period
DPD
sec
5-day plot - Average Wave Period
APD
sec
5-day plot - Mean Wave Direction
MWD
 
5-day plot - Atmospheric Pressure
PRES
in
5-day plot - Pressure Tendency
PTDY
in
5-day plot - Air Temperature
ATMP
°F
5-day plot - Water Temperature
WTMP
°F
5-day plot - Dew Point
DEWP
°F
5-day plot - Salinity
SAL
psu
5-day plot - Visibility
VIS
nmi
5-day plot - Tide (above MLLW)
TIDE
ft
2024-07-15 08:24 amENE 1.0 2.9----30.11- 85.6 88.7----
2024-07-15 08:18 am E 1.9 2.9----30.11- 85.5 88.7----
2024-07-15 08:12 am NE 1.0 2.9----30.11- 85.1 88.7----
2024-07-15 08:06 amENE 1.9 2.9----30.11- 84.7 88.7----
2024-07-15 08:00 am- 0.0 1.9----30.11+0.06 85.3 88.7----
2024-07-15 07:54 am- 0.0 1.9----30.11- 84.9 88.7----
2024-07-15 07:48 am N 1.9 2.9----30.10- 83.8 88.7----
2024-07-15 07:42 am N 1.9 4.1----30.10- 83.5 88.7----
2024-07-15 07:36 am N 4.1 5.1----30.10- 82.4 88.7----
2024-07-15 07:30 amNNE 2.9 4.1----30.09- 82.0 88.9----
2024-07-15 07:24 amNNE 2.9 5.1----30.09- 82.2 88.9----
2024-07-15 07:18 am NE 2.9 4.1----30.08- 81.9 88.9----
2024-07-15 07:12 amNNE 2.9 4.1----30.08- 81.7 88.9----
2024-07-15 07:06 am NE 2.9 4.1----30.07- 81.1 88.9----
2024-07-15 07:00 amNNE 2.9 5.1----30.07+0.04 81.1 88.9----
2024-07-15 06:54 am NE 1.9 4.1----30.08- 81.0 88.9----
2024-07-15 06:48 am NE 1.9 4.1----30.08- 80.8 88.9----
2024-07-15 06:42 amNNE 1.9 4.1----30.07- 81.0 88.9----
2024-07-15 06:36 am N 2.9 5.1----30.07- 81.0 88.9----
2024-07-15 06:30 am N 5.1 7.0----30.07- 80.8 88.9----
2024-07-15 06:24 am N 2.9 4.1----30.07- 80.8 88.9----
2024-07-15 06:18 am N 4.1 6.0----30.08- 80.6 88.9----
2024-07-15 06:12 am N 4.1 7.0----30.07- 80.8 88.9----
2024-07-15 06:06 am N 4.1 7.0----30.07- 80.8 88.9----
2024-07-15 06:00 am N 5.1 8.9----30.07+0.04 81.0 88.9----
2024-07-15 05:54 am N 5.1 7.0----30.07- 81.1 88.9----
2024-07-15 05:48 am N 5.1 7.0----30.06- 81.1 88.9----
2024-07-15 05:42 am N 4.1 6.0----30.06- 81.3 88.9----
2024-07-15 05:36 am N 2.9 5.1----30.06- 81.3 88.9----
2024-07-15 05:30 am N 2.9 5.1----30.06- 81.3 88.9----
2024-07-15 05:24 am N 1.9 5.1----30.06- 81.3 88.9----
2024-07-15 05:18 am N 4.1 5.1----30.06- 81.3 88.9----
2024-07-15 05:12 am N 2.9 4.1----30.06- 81.1 88.9----
2024-07-15 05:06 am N 1.9 4.1----30.05- 81.3 88.9----
2024-07-15 05:00 am N 2.9 4.1----30.05+0.00 81.3 88.9----
2024-07-15 04:54 am N 2.9 6.0----30.05- 81.1 88.9----
2024-07-15 04:48 am N 2.9 6.0----30.05- 81.1 88.9----
2024-07-15 04:42 am N 4.1 7.0----30.05- 81.0 88.9----
2024-07-15 04:36 am N 6.0 7.0----30.04- 81.0 88.9----
2024-07-15 04:30 am N 4.1 5.1----30.05- 81.5 88.9----
2024-07-15 04:24 amNNE 2.9 2.9----30.04- 81.3 88.9----
2024-07-15 04:18 amNNE 2.9 4.1----30.04- 81.0 88.9----
2024-07-15 04:12 am N 2.9 6.0----30.04- 80.8 88.9----
2024-07-15 04:06 am N 5.1 6.0----30.04- 80.8 88.9----
2024-07-15 04:00 am N 6.0 7.0----30.03-0.04 80.8 88.9----
2024-07-15 03:54 am N 5.1 7.0----30.03- 80.8 88.9----
2024-07-15 03:48 am N 5.1 6.0----30.03- 81.1 88.9----
2024-07-15 03:42 am N 5.1 7.0----30.03- 81.3 88.9----
2024-07-15 03:36 am N 5.1 6.0----30.03- 81.3 88.9----
2024-07-15 03:30 am N 4.1 5.1----30.03- 81.3 88.9----
2024-07-15 03:24 am N 1.9 2.9----30.03- 81.5 88.9----
2024-07-15 03:18 amNNE 1.9 2.9----30.03- 81.5 88.9----
2024-07-15 03:12 amNNE 1.9 2.9----30.03- 81.7 88.9----
2024-07-15 03:06 am NE 1.0 2.9----30.03- 81.7 88.9----
2024-07-15 03:00 am NE 2.9 4.1----30.03-0.06 81.7 88.9----
2024-07-15 02:54 am N 1.9 2.9----30.03- 82.0 88.9----
2024-07-15 02:48 am N 1.9 4.1----30.03- 82.2 89.1----
2024-07-15 02:42 amNNW 1.9 4.1----30.03- 82.2 89.1----
2024-07-15 02:36 am- 0.0 1.0----30.03- 82.4 89.1----
2024-07-15 02:30 am- 0.0 0.0----30.03- 82.6 89.1----
2024-07-15 02:24 am- 0.0 1.0----30.03- 82.6 89.1----
2024-07-15 02:18 am- 0.0 1.9----30.04- 82.6 89.1----
2024-07-15 02:12 am- 0.0 1.0----30.04- 82.9 89.1----
2024-07-15 02:06 am W 1.0 1.9----30.05- 82.9 89.1----
2024-07-15 02:00 am- 0.0 1.9----30.04-0.04 82.9 89.1----
2024-07-15 01:54 amWNW 1.9 2.9----30.05- 82.9 89.1----
2024-07-15 01:48 amWNW 1.0 2.9----30.05- 82.9 89.1----
2024-07-15 01:42 amWNW 1.9 2.9----30.06- 83.1 89.1----
2024-07-15 01:36 am- 0.0 2.9----30.06- 83.1 89.1----
2024-07-15 01:30 am NW 1.9 4.1----30.07- 83.3 89.1----
2024-07-15 01:24 am W 1.9 4.1----30.07- 83.7 89.1----
2024-07-15 01:18 am W 1.9 4.1----30.07- 83.7 89.1----
2024-07-15 01:12 am W 1.9 2.9----30.08- 83.7 89.1----
2024-07-15 01:06 am W 1.9 2.9----30.08- 83.7 89.1----
2024-07-15 01:00 am W 1.9 4.1----30.07-0.02 83.8 89.1----
2024-07-15 12:54 am W 1.9 4.1----30.08- 83.7 89.1----
2024-07-15 12:48 am W 1.9 2.9----30.08-- 89.1----
2024-07-15 12:42 am W 1.9 4.1----30.08-- 89.1----
2024-07-15 12:36 am W 2.9 5.1----30.09-- 89.2----
2024-07-15 12:30 am W 4.1 5.1----30.09- 84.0 89.2----
2024-07-15 12:24 am W 4.1 7.0----30.10- 84.0 89.2----
2024-07-15 12:18 am W 4.1 6.0----30.09- 84.2 89.2----
2024-07-15 12:12 am W 2.9 5.1----30.09- 84.7 89.2----
2024-07-15 12:06 am SW 4.1 6.0----30.09- 84.7 89.2----
2024-07-15 12:00 am SW 4.1 7.0----30.09+0.00 84.9 89.2----
2024-07-14 11:54 pm SW 2.9 6.0----30.09- 85.1 89.2----
2024-07-14 11:48 pmWSW 2.9 7.0----30.09- 84.9 89.2----
2024-07-14 11:42 pmWSW 1.9 5.1----30.09- 85.3 89.2----
2024-07-14 11:36 pm W 1.9 6.0----30.09- 85.1 89.2----
2024-07-14 11:30 pmWSW 2.9 6.0----30.09-- 89.2----
2024-07-14 11:24 pm W 2.9 5.1----30.09-- 89.4----
2024-07-14 11:18 pmWSW 2.9 5.1----30.09- 84.7 89.4----
2024-07-14 11:12 pm W 2.9 6.0----30.09- 84.6 89.4----
2024-07-14 11:06 pm W 2.9 6.0----30.09- 84.6 89.4----
2024-07-14 11:00 pm W 4.1 6.0----30.09+0.00 84.6 89.4----
2024-07-14 10:54 pm W 2.9 5.1----30.09- 84.9 89.4----
2024-07-14 10:48 pm W 2.9 5.1----30.08- 84.6 89.4----
2024-07-14 10:42 pm W 4.1 6.0----30.09- 84.6 89.4----
2024-07-14 10:36 pm W 2.9 4.1----30.09- 85.1 89.4----
2024-07-14 10:30 pm W 2.9 5.1----30.09- 84.9 89.4----
2024-07-14 10:24 pm W 2.9 7.0----30.09- 84.9 89.4----
2024-07-14 10:18 pm W 5.1 8.0----30.09- 84.9 89.4----
2024-07-14 10:12 pm W 5.1 7.0----30.09- 85.3 89.4----
2024-07-14 10:06 pm W 2.9 4.1----30.09- 85.3 89.6----
2024-07-14 10:00 pm W 4.1 6.0----30.09+0.03 85.3-----
2024-07-14 09:54 pm W 4.1 5.1----30.10- 85.1-----
2024-07-14 09:48 pm-------30.10- 85.3 89.6----
2024-07-14 09:42 pm-------30.10- 85.3 89.6----
2024-07-14 09:36 pm-------30.10- 85.3 89.6----
2024-07-14 09:30 pm W 1.9 5.1----30.09- 85.5 89.6----
2024-07-14 09:24 pm W 2.9 5.1----30.09- 85.3 89.6----
2024-07-14 09:18 pm W 4.1 6.0----30.09- 85.1 89.6----
2024-07-14 09:12 pm W 5.1 7.0----30.09- 85.1 89.6----
2024-07-14 09:06 pm W 5.1 8.0----30.09- 85.3 89.6----
2024-07-14 09:00 pm W 2.9 7.0----30.09+0.02 85.6 89.6----
2024-07-14 08:54 pm W 2.9 7.0----30.09- 85.6 89.8----
2024-07-14 08:48 pm W 5.1 8.0----30.09- 85.3 89.8----
2024-07-14 08:42 pm W 5.1 8.0----30.09- 85.5 89.8----
2024-07-14 08:36 pm W 5.1 8.0----30.09- 85.6 89.8----
2024-07-14 08:30 pm W 5.1 7.0----30.09- 85.6 89.8----
2024-07-14 08:24 pm W 4.1 8.0----30.08- 86.2 90.0----
2024-07-14 08:18 pm W 4.1 8.0----30.08-- 90.0----
2024-07-14 08:12 pm W 4.1 8.9----30.08-- 90.0----
2024-07-14 08:06 pmWSW 6.0 8.9----30.08-- 90.0----
2024-07-14 08:00 pmWSW 7.0 9.9----30.08+0.01 86.7 90.0----
2024-07-14 07:54 pm SW 6.0 9.9----30.08- 86.7 90.0----
2024-07-14 07:48 pm SW 7.0 11.1----30.07-- 90.0----
2024-07-14 07:42 pmWSW 5.1 8.9----30.08-- 90.0----
2024-07-14 07:36 pmWSW 5.1 11.1----30.08-- 90.1----
2024-07-14 07:30 pm SW 7.0 12.0----30.07- 87.1 90.1----
2024-07-14 07:24 pm SW 8.9 13.0----30.07- 86.9 90.1----
2024-07-14 07:18 pm SW 8.0 12.0----30.06-- 90.1----
2024-07-14 07:12 pm SW 9.9 13.0----30.06-- 90.1----
2024-07-14 07:06 pm SW 5.1 12.0----30.07-- 90.1----
2024-07-14 07:00 pm SW 6.0 11.1----30.06-0.01- 90.1----
2024-07-14 06:54 pm SW 9.9 11.1----30.07-- 90.1----
2024-07-14 06:48 pm SW 8.0 11.1----30.07- 88.2 90.1----
2024-07-14 06:42 pm SW 8.0 12.0----30.07- 88.3 90.1----
2024-07-14 06:36 pmSSW 7.0 9.9----30.07- 88.5 90.1----
2024-07-14 06:30 pm SW 7.0 11.1----30.06-- 90.1----
2024-07-14 06:24 pm SW 8.0 11.1----30.06-- 90.1----
2024-07-14 06:18 pmSSW 8.0 9.9----30.06- 88.9 90.1----
2024-07-14 06:12 pmSSW 8.0 9.9----30.06- 88.5 90.1----
2024-07-14 06:06 pm SW 9.9 12.0----30.06- 88.5 90.1----
2024-07-14 06:00 pm SW 7.0 11.1----30.06-0.02 88.7 90.1----
2024-07-14 05:54 pm SW 8.0 12.0----30.07- 88.7 90.1----
2024-07-14 05:48 pm SW 8.9 12.0----30.06- 88.5 90.1----
2024-07-14 05:42 pmWSW 5.1 11.1----30.07- 89.2 90.1----
2024-07-14 05:36 pm SW 7.0 12.0----30.07- 88.3 90.1----
2024-07-14 05:30 pm SW 7.0 12.0----30.07- 88.2 90.1----
2024-07-14 05:24 pmSSW 8.9 12.0----30.07- 88.2 90.1----
2024-07-14 05:18 pm SW 9.9 12.0----30.07- 88.0 90.1----
2024-07-14 05:12 pmSSW 9.9 12.0----30.07- 88.0 90.1----
2024-07-14 05:06 pmSSW 9.9 13.0----30.07- 88.2 90.1----
2024-07-14 05:00 pmSSW 8.9 12.0----30.07-0.04- 90.1----
2024-07-14 04:54 pmSSW 8.0 12.0----30.07-- 90.1----
2024-07-14 04:48 pmSSW 8.9 12.0----30.07- 88.3 90.1----
2024-07-14 04:42 pmSSW 8.0 12.0----30.07- 88.3 90.1----
2024-07-14 04:36 pmSSW 9.9 12.0----30.07- 88.5 90.1----
2024-07-14 04:30 pmSSW 7.0 11.1----30.07-- 90.1----
2024-07-14 04:24 pmSSW 7.0 12.0----30.07-- 90.1----
2024-07-14 04:18 pmSSW 8.0 11.1----30.07- 88.9 90.1----
2024-07-14 04:12 pmSSW 8.0 12.0----30.07- 88.7 90.0----
2024-07-14 04:06 pmSSW 8.9 11.1----30.08- 88.5 90.0----
2024-07-14 04:00 pmSSW 8.0 11.1----30.08-0.06 88.7 90.0----
2024-07-14 03:54 pmSSW 8.0 12.0----30.08- 88.5 90.0----
2024-07-14 03:48 pmSSW 8.9 12.0----30.08- 88.7 90.0----
2024-07-14 03:42 pm S 11.1 13.0----30.08- 88.5 90.0----
2024-07-14 03:36 pmSSW 8.9 12.0----30.08- 88.7 90.0----
2024-07-14 03:30 pmSSW 7.0 11.1----30.08- 88.7 90.0----
2024-07-14 03:24 pmSSW 8.9 12.0----30.08- 88.2 90.0----
2024-07-14 03:18 pmSSW 8.0 11.1----30.08-- 89.8----
2024-07-14 03:12 pmSSW 8.0 9.9----30.08-- 89.8----
2024-07-14 03:06 pmSSW 7.0 11.1----30.09-- 89.8----
2024-07-14 03:00 pm S 9.9 11.1----30.09-- 89.8----
2024-07-14 02:54 pmSSW 8.9 12.0----30.09-- 89.8----
2024-07-14 02:48 pmSSW 8.9 12.0----30.09- 88.2 89.8----
2024-07-14 02:42 pm S 8.0 11.1----30.09- 88.3 89.8----
2024-07-14 02:36 pmSSW 7.0 11.1----30.09- 88.2 89.8----
2024-07-14 02:30 pm S 8.0 9.9----30.10-- 89.8----
2024-07-14 02:24 pmSSW 8.0 8.9----30.10-- 89.8----
2024-07-14 02:18 pmSSW 6.0 8.9----30.10- 88.7 89.6----
2024-07-14 02:12 pmSSW 6.0 8.0----30.11- 88.9 89.6----
2024-07-14 02:06 pm S 7.0 8.9----30.11- 88.7 89.6----
2024-07-14 02:00 pmSSW 5.1 8.0----30.11-0.04 88.7 89.6----
2024-07-14 01:54 pmSSW 6.0 8.0----30.11- 88.3 89.4----
2024-07-14 01:48 pmSSW 6.0 8.0----30.12- 88.2 89.4----
2024-07-14 01:42 pmSSW 7.0 8.9----30.12- 88.2 89.4----
2024-07-14 01:36 pmSSW 8.0 8.9----30.12- 88.0 89.4----
2024-07-14 01:30 pmSSW 6.0 8.9----30.13-- 89.4----
2024-07-14 01:24 pmSSW 7.0 9.9----30.13-- 89.4----
2024-07-14 01:18 pmSSW 6.0 8.9----30.13-------
2024-07-14 01:12 pmSSW 6.0 8.9----30.13-------
2024-07-14 01:06 pmSSW 8.0 11.1----30.14-------
2024-07-14 01:00 pm S 8.9 12.0----30.14-0.02 87.6 89.4----
2024-07-14 12:54 pmSSW 6.0 9.9----30.14- 87.6 89.4----
2024-07-14 12:48 pmSSW 7.0 9.9----30.14-- 89.4----
2024-07-14 12:42 pmSSW 8.0 11.1----30.14-- 89.2----
2024-07-14 12:36 pmSSW 6.0 9.9----30.14-- 89.2----
2024-07-14 12:30 pmSSW 7.0 8.9----30.14-- 89.2----
2024-07-14 12:24 pmSSW 6.0 8.0----30.15-- 89.2----
2024-07-14 12:18 pmSSW 5.1 7.0----30.15- 88.0 89.2----
2024-07-14 12:12 pm S 5.1 7.0----30.15- 88.0 89.1----
2024-07-14 12:06 pmSSW 4.1 8.9----30.15- 87.6 88.9----
2024-07-14 12:00 pmSSW 6.0 8.0------ 86.7 88.9----
2024-07-14 11:54 amSSW 6.0 8.0------ 86.9 88.9----
2024-07-14 11:48 amSSW 6.0 8.0----30.15- 86.5 88.9----
2024-07-14 11:42 amSSW 5.1 7.0----30.16- 86.9 88.7----
2024-07-14 11:36 am S 6.0 7.0----30.15- 87.1 88.7----
2024-07-14 11:30 amSSW 5.1 8.0----30.15- 86.9 88.7----
2024-07-14 11:24 amSSW 5.1 8.9----30.16- 87.3 88.7----
2024-07-14 11:18 am-------30.16- 86.9 88.7----
2024-07-14 11:12 am-------30.16- 87.3 88.7----
2024-07-14 11:06 am-------30.16- 87.8 88.7----
2024-07-14 11:00 am S 4.1 5.1----30.16+0.00 88.2 88.7----
2024-07-14 10:54 am S 4.1 5.1----30.16- 88.9 88.9----
2024-07-14 10:48 am S 1.9 4.1----30.16-- 88.9----
2024-07-14 10:42 am S 4.1 5.1----30.16-- 88.9----
2024-07-14 10:36 am S 2.9 4.1----30.16-- 88.9----
2024-07-14 10:30 am S 2.9 6.0----30.16- 88.7 88.9----
2024-07-14 10:24 am S 4.1 5.1----30.16- 89.1 88.9----
2024-07-14 10:18 am S 4.1 5.1----30.16- 88.9 88.9----
2024-07-14 10:12 amSSE 1.0 4.1----30.16- 90.0 88.9----
2024-07-14 10:06 am- 0.0 4.1----30.16- 89.1 88.7----
2024-07-14 10:00 am S 2.9 4.1----30.16+0.00 88.0 88.7----
2024-07-14 09:54 amSSE 2.9 5.1----30.16- 87.4 88.7----
2024-07-14 09:48 am S 2.9 5.1------ 86.5 88.5----
2024-07-14 09:42 am S 4.1 5.1------ 86.4 88.7----
2024-07-14 09:36 am S 5.1 6.0------ 86.7 88.7----
2024-07-14 09:30 amSSE 4.1 5.1----30.16- 87.4 88.7----
2024-07-14 09:24 am- 0.0 2.9----30.16- 88.5 88.7----
2024-07-14 09:18 am E 1.0 4.1----30.16- 87.4 88.7----
2024-07-14 09:12 amESE 1.0 4.1----30.16- 88.3 88.7----
2024-07-14 09:06 am E 2.9 5.1----30.16- 87.3 88.7----
2024-07-14 09:00 am-------30.15+0.02 87.6 88.7----
2024-07-14 08:54 am-------30.16- 87.3 88.7----